Location: Pedholt
(56.0260°N, 10.2097°E)
Time: 02:39:57
(UTC+00:00)

SR - Pass Details

Date: 05 August 2021
Orbit: 581 x 873 km, 66.7° (Epoch: 27 September)

Event Time Altitude Azimuth Distance (km) Brightness Sun altitude
Rises 03:52:26 0° 181° (S) 3,422 ? 1.8°
Reaches altitude 10° 03:55:17 10° 170° (S) 2,463 ? 2.1°
Maximum altitude 03:59:58 27° 115° (ESE) 1,523 ? 2.7°
Drops below altitude 10° 04:04:26 10° 59° (ENE) 2,342 ? 3.3°
Sets 04:07:04 0° 47° (NE) 3,223 ? 3.6°
